AFL750 USSS-UWGG

Flight info

Callsign AFL750
Flight time 1h 30m
Altitude 32000
Route UMTEK6G UMTEK DCT LUNAG DCT INGEN DCT KERUN DCT KAMZA DCT UMPER DCT GILAM GILAM2N
Aircraft A20N/M-SDE2E3FGHIRWXY/LB1

Departure

Time 2026-04-25 16:02
Airport Koltsovo Airport (USSS)

Arrival

Time 2026-04-25 17:32
Airport Nizhny Novgorod / Strigino International Airport (UWGG)
Time Latitude Longitude Altitude Speed Heading
2026-04-25 15:13 56.74794 60.80896 764 ft 0 kts
2026-04-25 15:52 56.74795 60.80896 736 ft 1 kts
2026-04-25 15:54 56.74798 60.80896 736 ft 2 kts
2026-04-25 15:54 56.74822 60.80897 764 ft 5 kts
2026-04-25 15:54 56.74850 60.80941 764 ft 6 kts 65°
2026-04-25 15:54 56.74857 60.81031 764 ft 8 kts 84°
2026-04-25 15:55 56.74865 60.81104 765 ft 10 kts 78°
2026-04-25 15:55 56.74867 60.81281 766 ft 12 kts 91°
2026-04-25 15:55 56.74867 60.81440 767 ft 13 kts 90°
2026-04-25 15:55 56.74867 60.81620 768 ft 15 kts 89°
2026-04-25 15:56 56.74864 60.81810 769 ft 12 kts 99°
2026-04-25 15:56 56.74831 60.81944 770 ft 12 kts 115°
2026-04-25 15:56 56.74790 60.82095 771 ft 14 kts 116°
2026-04-25 15:56 56.74746 60.82197 772 ft 10 kts 165°
2026-04-25 15:57 56.74672 60.82200 772 ft 12 kts 182°
2026-04-25 15:57 56.74586 60.82202 772 ft 13 kts 181°
2026-04-25 15:57 56.74497 60.82198 775 ft 13 kts 183°
2026-04-25 15:57 56.74401 60.82193 773 ft 15 kts 185°
2026-04-25 15:58 56.74300 60.82179 771 ft 0 kts 184°
2026-04-25 15:58 56.74294 60.82178 771 ft 0 kts 183°
2026-04-25 15:58 56.74293 60.82178 771 ft 0 kts 183°
2026-04-25 15:59 56.74287 60.82178 771 ft 3 kts 183°
2026-04-25 15:59 56.74254 60.82173 771 ft 7 kts 185°
2026-04-25 15:59 56.74194 60.82165 770 ft 10 kts 183°
2026-04-25 15:59 56.74114 60.82155 768 ft 13 kts 183°
2026-04-25 16:00 56.74088 60.82145 767 ft 11 kts 206°
2026-04-25 16:00 56.74067 60.82045 766 ft 0 kts 274°
2026-04-25 16:01 56.74068 60.82040 766 ft 2 kts 274°
2026-04-25 16:01 56.74078 60.81776 765 ft 56 kts 274°
2026-04-25 16:01 56.74124 60.80638 760 ft 121 kts 275°
2026-04-25 16:01 56.74181 60.78813 939 ft 151 kts 272°
2026-04-25 16:02 56.74270 60.76938 1641 ft 151 kts 272°
2026-04-25 16:02 56.74395 60.75038 2417 ft 146 kts 270°
2026-04-25 16:02 56.74477 60.73182 3039 ft 153 kts 268°
2026-04-25 16:02 56.74538 60.71150 3477 ft 172 kts 268°
2026-04-25 16:03 56.74611 60.68798 3921 ft 196 kts 269°
2026-04-25 16:03 56.74704 60.66185 4440 ft 218 kts 270°
2026-04-25 16:03 56.74816 60.63296 5025 ft 239 kts 270°
2026-04-25 16:03 56.75080 60.60232 5844 ft 249 kts 279°
2026-04-25 16:04 56.75542 60.57153 6760 ft 253 kts 280°
2026-04-25 16:04 56.75963 60.54027 7699 ft 255 kts 277°
2026-04-25 16:04 56.76297 60.50827 8618 ft 258 kts 274°
2026-04-25 16:04 56.76564 60.47577 9547 ft 261 kts 273°
2026-04-25 16:05 56.76798 60.44255 10241 ft 272 kts 272°
2026-04-25 16:05 56.77032 60.40678 10581 ft 295 kts 272°
2026-04-25 16:05 56.77556 60.32799 11639 ft 322 kts 273°
2026-04-25 16:06 56.77835 60.28771 12475 ft 326 kts 273°
2026-04-25 16:06 56.78121 60.24653 13295 ft 330 kts 273°
2026-04-25 16:06 56.78411 60.20484 14032 ft 334 kts 273°
2026-04-25 16:06 56.78704 60.16263 14772 ft 337 kts 273°
2026-04-25 16:07 56.78997 60.12006 15514 ft 340 kts 272°
2026-04-25 16:07 56.79091 60.10552 15757 ft 341 kts 272°
2026-04-25 16:07 56.79526 60.03335 16930 ft 347 kts 272°
2026-04-25 16:07 56.79787 59.98931 17639 ft 351 kts 272°
2026-04-25 16:08 56.80052 59.94482 18292 ft 354 kts 271°
2026-04-25 16:08 56.80320 59.90001 18918 ft 357 kts 271°
2026-04-25 16:08 56.80591 59.85475 19542 ft 360 kts 271°
2026-04-25 16:08 56.80861 59.80918 20161 ft 362 kts 270°
2026-04-25 16:09 56.81133 59.76320 20781 ft 365 kts 270°
2026-04-25 16:09 56.81404 59.71696 21385 ft 368 kts 270°
2026-04-25 16:09 56.81676 59.67025 21971 ft 371 kts 270°
2026-04-25 16:09 56.81949 59.62315 22560 ft 374 kts 269°
2026-04-25 16:10 56.82218 59.57634 23129 ft 377 kts 269°
2026-04-25 16:10 56.82492 59.52845 23612 ft 381 kts 269°
2026-04-25 16:10 56.82765 59.48017 24077 ft 383 kts 269°
2026-04-25 16:10 56.83038 59.43159 24538 ft 386 kts 269°
2026-04-25 16:11 56.83311 59.38257 24959 ft 390 kts 269°
2026-04-25 16:11 56.83586 59.33305 25392 ft 393 kts 269°
2026-04-25 16:11 56.83860 59.28328 25823 ft 396 kts 269°
2026-04-25 16:11 56.84134 59.23316 26237 ft 399 kts 270°
2026-04-25 16:12 56.84409 59.18238 26646 ft 402 kts 270°
2026-04-25 16:12 56.84683 59.13141 27048 ft 405 kts 270°
2026-04-25 16:12 56.84956 59.08013 27427 ft 407 kts 270°
2026-04-25 16:12 56.85033 59.06264 27553 ft 407 kts 268°
2026-04-25 16:13 56.85182 58.97645 28138 ft 411 kts 266°
2026-04-25 16:13 56.85276 58.92401 28493 ft 414 kts 266°
2026-04-25 16:13 56.85342 58.88923 28721 ft 415 kts 266°
2026-04-25 16:13 56.85474 58.81834 29145 ft 419 kts 267°
2026-04-25 16:14 56.85539 58.78295 29377 ft 421 kts 267°
2026-04-25 16:14 56.85635 58.72927 29701 ft 424 kts 267°
2026-04-25 16:14 56.85727 58.67531 29973 ft 426 kts 267°
2026-04-25 16:14 56.85815 58.62103 30232 ft 429 kts 267°
2026-04-25 16:15 56.85901 58.56607 30494 ft 432 kts 267°
2026-04-25 16:15 56.85984 58.51102 30780 ft 434 kts 267°
2026-04-25 16:15 56.86065 58.45651 31095 ft 435 kts 267°
2026-04-25 16:15 56.86146 58.40058 31437 ft 436 kts 267°
2026-04-25 16:16 56.86223 58.34518 31622 ft 436 kts 267°
2026-04-25 16:16 56.86370 58.23482 31651 ft 434 kts 267°
2026-04-25 16:17 56.86507 58.12432 31646 ft 435 kts 267°
2026-04-25 16:17 56.86633 58.01382 31645 ft 435 kts 267°
2026-04-25 16:18 56.86749 57.90326 31644 ft 435 kts 267°
2026-04-25 16:18 56.86857 57.79249 31639 ft 436 kts 267°
2026-04-25 16:19 56.86955 57.68172 31638 ft 436 kts 267°
2026-04-25 16:19 56.87044 57.57093 31635 ft 437 kts 267°
2026-04-25 16:20 56.87156 57.40488 31631 ft 437 kts 267°
2026-04-25 16:21 56.87248 57.23790 31632 ft 437 kts 267°
2026-04-25 16:21 56.87297 57.12681 31628 ft 437 kts 267°
2026-04-25 16:22 56.87336 57.01565 31621 ft 437 kts 267°
2026-04-25 16:22 56.87365 56.90438 31618 ft 437 kts 267°
2026-04-25 16:23 56.87385 56.79320 31617 ft 437 kts 267°
2026-04-25 16:23 56.87394 56.68212 31610 ft 437 kts 267°
2026-04-25 16:24 56.87394 56.57099 31607 ft 437 kts 267°
2026-04-25 16:24 56.87383 56.45977 31600 ft 437 kts 266°
2026-04-25 16:25 56.87365 56.34935 31596 ft 437 kts 267°
2026-04-25 16:25 56.87340 56.23811 31594 ft 437 kts 267°
2026-04-25 16:26 56.87300 56.12686 31594 ft 438 kts 266°
2026-04-25 16:26 56.87248 56.01550 31594 ft 438 kts 266°
2026-04-25 16:27 56.87183 55.90417 31595 ft 438 kts 266°
2026-04-25 16:27 56.87111 55.79278 31592 ft 438 kts 266°
2026-04-25 16:28 56.87032 55.68142 31591 ft 438 kts 266°
2026-04-25 16:28 56.86943 55.56998 31589 ft 438 kts 266°
2026-04-25 16:29 56.86843 55.45863 31587 ft 438 kts 266°
2026-04-25 16:29 56.86733 55.34710 31589 ft 439 kts 266°
2026-04-25 16:30 56.86614 55.23567 31584 ft 439 kts 266°
2026-04-25 16:30 56.86485 55.12477 31585 ft 439 kts 266°
2026-04-25 16:31 56.86346 55.01332 31585 ft 439 kts 266°
2026-04-25 16:31 56.86197 54.90161 31581 ft 439 kts 266°
2026-04-25 16:32 56.86039 54.78997 31581 ft 439 kts 266°
2026-04-25 16:32 56.85870 54.67836 31578 ft 439 kts 266°
2026-04-25 16:33 56.85690 54.56684 31578 ft 439 kts 266°
2026-04-25 16:33 56.85502 54.45515 31574 ft 440 kts 265°
2026-04-25 16:34 56.85303 54.34348 31576 ft 440 kts 265°
2026-04-25 16:34 56.85094 54.23183 31580 ft 440 kts 265°
2026-04-25 16:35 56.84875 54.12021 31575 ft 440 kts 265°
2026-04-25 16:35 56.84646 54.00852 31573 ft 440 kts 265°
2026-04-25 16:36 56.84407 53.89691 31574 ft 440 kts 265°
2026-04-25 16:36 56.84160 53.78611 31572 ft 440 kts 265°
2026-04-25 16:37 56.83902 53.67452 31572 ft 440 kts 265°
2026-04-25 16:37 56.83638 53.56258 31571 ft 440 kts 265°
2026-04-25 16:38 56.83369 53.45106 31571 ft 440 kts 265°
2026-04-25 16:38 56.83369 53.33891 31570 ft 442 kts 269°
2026-04-25 16:39 56.83518 53.22679 31570 ft 442 kts 269°
2026-04-25 16:39 56.83614 53.11459 31570 ft 442 kts 268°
2026-04-25 16:40 56.83677 53.00240 31568 ft 442 kts 268°
2026-04-25 16:40 56.83728 52.89014 31569 ft 442 kts 268°
2026-04-25 16:41 56.83770 52.77780 31570 ft 442 kts 268°
2026-04-25 16:41 56.83813 52.60932 31572 ft 443 kts 268°
2026-04-25 16:42 56.83830 52.49769 31574 ft 443 kts 268°
2026-04-25 16:42 56.83835 52.38521 31574 ft 443 kts 268°
2026-04-25 16:43 56.83833 52.27270 31576 ft 443 kts 268°
2026-04-25 16:43 56.83821 52.16021 31578 ft 446 kts 267°
2026-04-25 16:44 56.83793 52.04465 31579 ft 462 kts 267°
2026-04-25 16:44 56.83760 51.92737 31579 ft 451 kts 267°
2026-04-25 16:45 56.83716 51.81344 31591 ft 446 kts 267°
2026-04-25 16:45 56.83661 51.70138 31586 ft 444 kts 267°
2026-04-25 16:46 56.83595 51.58845 31595 ft 447 kts 267°
2026-04-25 16:46 56.83491 51.51233 31593 ft 446 kts 264°
2026-04-25 16:47 56.83083 51.36246 31594 ft 444 kts 265°
2026-04-25 16:47 56.82789 51.24967 31601 ft 445 kts 265°
2026-04-25 16:48 56.82472 51.13702 31602 ft 444 kts 264°
2026-04-25 16:48 56.82142 51.02425 31603 ft 445 kts 264°
2026-04-25 16:49 56.81800 50.91164 31605 ft 445 kts 264°
2026-04-25 16:49 56.81447 50.79836 31607 ft 446 kts 264°
2026-04-25 16:50 56.81086 50.68566 31612 ft 445 kts 264°
2026-04-25 16:50 56.80713 50.57284 31613 ft 445 kts 264°
2026-04-25 16:51 56.80332 50.46050 31611 ft 445 kts 264°
2026-04-25 16:51 56.80074 50.38585 31616 ft 446 kts 264°
2026-04-25 16:52 56.79540 50.23566 31616 ft 446 kts 264°
2026-04-25 16:52 56.79127 50.12274 31617 ft 446 kts 264°
2026-04-25 16:53 56.78487 49.95339 31622 ft 446 kts 263°
2026-04-25 16:54 56.78048 49.84049 31618 ft 446 kts 263°
2026-04-25 16:54 56.77599 49.72764 31617 ft 446 kts 263°
2026-04-25 16:55 56.77139 49.61478 31617 ft 447 kts 263°
2026-04-25 16:55 56.76670 49.50201 31619 ft 447 kts 263°
2026-04-25 16:56 56.76187 49.38876 31621 ft 447 kts 263°
2026-04-25 16:56 56.75696 49.27564 31624 ft 448 kts 263°
2026-04-25 16:57 56.75194 49.16269 31622 ft 447 kts 263°
2026-04-25 16:57 56.74682 49.04956 31631 ft 448 kts 262°
2026-04-25 16:58 56.74159 48.93644 31626 ft 448 kts 262°
2026-04-25 16:58 56.73626 48.82334 31629 ft 449 kts 262°
2026-04-25 16:59 56.73084 48.71048 31633 ft 448 kts 262°
2026-04-25 16:59 56.72530 48.59706 31630 ft 449 kts 262°
2026-04-25 17:00 56.72257 48.48325 31632 ft 451 kts 268°
2026-04-25 17:00 56.72339 48.36901 31644 ft 452 kts 268°
2026-04-25 17:01 56.72402 48.25466 31647 ft 452 kts 268°
2026-04-25 17:01 56.72436 48.14031 31631 ft 452 kts 267°
2026-04-25 17:02 56.72454 48.02662 31638 ft 452 kts 267°
2026-04-25 17:02 56.72460 47.91219 31642 ft 453 kts 267°
2026-04-25 17:03 56.72457 47.79759 31640 ft 452 kts 267°
2026-04-25 17:03 56.72443 47.68309 31642 ft 452 kts 267°
2026-04-25 17:04 56.72425 47.58807 31641 ft 452 kts 267°
2026-04-25 17:04 56.72393 47.47354 31639 ft 451 kts 267°
2026-04-25 17:05 56.72351 47.35924 31642 ft 451 kts 267°
2026-04-25 17:05 56.72267 47.18781 31647 ft 451 kts 267°
2026-04-25 17:06 56.72199 47.07371 31615 ft 452 kts 267°
2026-04-25 17:06 56.72160 47.01633 31388 ft 451 kts 267°
2026-04-25 17:06 56.72120 46.95928 31138 ft 450 kts 267°
2026-04-25 17:07 56.72077 46.90300 30900 ft 451 kts 267°
2026-04-25 17:07 56.72031 46.84576 30652 ft 451 kts 267°
2026-04-25 17:07 56.71983 46.78864 30407 ft 450 kts 267°
2026-04-25 17:07 56.71933 46.73205 30169 ft 447 kts 267°
2026-04-25 17:08 56.71880 46.67543 29933 ft 445 kts 266°
2026-04-25 17:08 56.71824 46.61911 29682 ft 443 kts 266°
2026-04-25 17:08 56.71766 46.56307 29375 ft 441 kts 266°
2026-04-25 17:08 56.71706 46.50755 29094 ft 438 kts 266°
2026-04-25 17:09 56.71643 46.45214 28806 ft 436 kts 266°
2026-04-25 17:09 56.71579 46.39710 28518 ft 434 kts 266°
2026-04-25 17:09 56.71512 46.34238 28231 ft 431 kts 267°
2026-04-25 17:09 56.71445 46.28853 27954 ft 429 kts 267°
2026-04-25 17:10 56.71374 46.23425 27674 ft 427 kts 267°
2026-04-25 17:10 56.71302 46.18031 27399 ft 426 kts 267°
2026-04-25 17:10 56.71228 46.12666 27120 ft 423 kts 267°
2026-04-25 17:10 56.71152 46.07317 26855 ft 421 kts 267°
2026-04-25 17:11 56.71074 46.02005 26583 ft 419 kts 267°
2026-04-25 17:11 56.70994 45.96704 26320 ft 417 kts 267°
2026-04-25 17:11 56.70911 45.91455 26053 ft 415 kts 266°
2026-04-25 17:11 56.70658 45.86224 25632 ft 413 kts 262°
2026-04-25 17:12 56.70349 45.81060 25127 ft 410 kts 263°
2026-04-25 17:12 56.70058 45.75930 24594 ft 405 kts 263°
2026-04-25 17:12 56.69771 45.70849 24069 ft 401 kts 263°
2026-04-25 17:12 56.69483 45.65827 23549 ft 397 kts 263°
2026-04-25 17:13 56.69200 45.60993 23004 ft 393 kts 263°
2026-04-25 17:13 56.69008 45.57735 22648 ft 389 kts 263°
2026-04-25 17:13 56.68621 45.51258 21955 ft 381 kts 264°
2026-04-25 17:13 56.68334 45.46498 21456 ft 376 kts 264°
2026-04-25 17:14 56.68049 45.41804 20969 ft 371 kts 264°
2026-04-25 17:14 56.67766 45.37166 20462 ft 367 kts 264°
2026-04-25 17:14 56.67484 45.32578 19965 ft 363 kts 264°
2026-04-25 17:14 56.67205 45.28047 19480 ft 359 kts 264°
2026-04-25 17:15 56.66926 45.23553 18992 ft 356 kts 264°
2026-04-25 17:15 56.66648 45.19103 18504 ft 353 kts 264°
2026-04-25 17:15 56.66369 45.14670 18023 ft 351 kts 264°
2026-04-25 17:15 56.66092 45.10285 17508 ft 347 kts 264°
2026-04-25 17:16 56.65817 45.05935 17038 ft 343 kts 264°
2026-04-25 17:16 56.65548 45.01710 16565 ft 340 kts 264°
2026-04-25 17:16 56.65255 44.97456 16100 ft 342 kts 260°
2026-04-25 17:16 56.64547 44.93075 15595 ft 383 kts 247°
2026-04-25 17:17 56.63138 44.88750 15343 ft 413 kts 233°
2026-04-25 17:17 56.61314 44.84543 15307 ft 433 kts 232°
2026-04-25 17:17 56.59414 44.80152 15340 ft 449 kts 232°
2026-04-25 17:17 56.57512 44.75765 16406 ft 439 kts 232°
2026-04-25 17:18 56.55617 44.71411 16932 ft 442 kts 232°
2026-04-25 17:18 56.53715 44.67047 16942 ft 445 kts 232°
2026-04-25 17:18 56.51782 44.62623 16972 ft 446 kts 232°
2026-04-25 17:18 56.49867 44.58255 16662 ft 439 kts 232°
2026-04-25 17:19 56.47995 44.54003 16032 ft 428 kts 232°
2026-04-25 17:19 56.46144 44.49811 15171 ft 424 kts 232°
2026-04-25 17:19 56.44312 44.45678 14345 ft 420 kts 232°
2026-04-25 17:19 56.42486 44.41572 13818 ft 414 kts 232°
2026-04-25 17:20 56.40690 44.37546 12938 ft 410 kts 231°
2026-04-25 17:20 56.38910 44.33573 12077 ft 405 kts 231°
2026-04-25 17:20 56.37161 44.29647 11330 ft 399 kts 231°
2026-04-25 17:20 56.35448 44.25718 10637 ft 400 kts 233°
2026-04-25 17:21 56.33993 44.21443 10368 ft 402 kts 245°
2026-04-25 17:21 56.33225 44.16676 10143 ft 382 kts 262°
2026-04-25 17:21 56.33288 44.12014 9946 ft 365 kts 281°
2026-04-25 17:21 56.34163 44.07849 9756 ft 350 kts 301°
2026-04-25 17:22 56.35742 44.04672 9590 ft 334 kts 323°
2026-04-25 17:22 56.37051 44.03326 9421 ft 321 kts 338°
2026-04-25 17:22 56.39864 44.02403 9145 ft 296 kts 354°
2026-04-25 17:22 56.41863 44.02200 8949 ft 280 kts 356°
2026-04-25 17:23 56.43829 44.02041 8721 ft 287 kts 356°
2026-04-25 17:23 56.45821 44.01879 8432 ft 284 kts 356°
2026-04-25 17:23 56.47781 44.01723 8156 ft 281 kts 356°
2026-04-25 17:23 56.49736 44.01569 7834 ft 281 kts 356°
2026-04-25 17:24 56.51696 44.01405 7525 ft 282 kts 354°
2026-04-25 17:24 56.53559 44.00454 7104 ft 280 kts 329°
2026-04-25 17:24 56.54979 43.98120 6694 ft 275 kts 302°
2026-04-25 17:24 56.55651 43.94929 6263 ft 272 kts 275°
2026-04-25 17:25 56.55440 43.91595 5821 ft 269 kts 248°
2026-04-25 17:25 56.54396 43.88825 5397 ft 267 kts 221°
2026-04-25 17:25 56.52807 43.87135 4951 ft 267 kts 195°
2026-04-25 17:25 56.50971 43.86992 4681 ft 262 kts 176°
2026-04-25 17:26 56.49158 43.87283 4553 ft 264 kts 176°
2026-04-25 17:26 56.47329 43.87302 4471 ft 262 kts 185°
2026-04-25 17:26 56.45526 43.86881 4429 ft 260 kts 191°
2026-04-25 17:26 56.43812 43.86256 4350 ft 248 kts 193°
2026-04-25 17:27 56.42166 43.85646 4166 ft 232 kts 192°
2026-04-25 17:27 56.40641 43.85081 3837 ft 215 kts 193°
2026-04-25 17:27 56.39226 43.84558 3583 ft 198 kts 193°
2026-04-25 17:27 56.38779 43.84393 3489 ft 192 kts 193°
2026-04-25 17:28 56.36739 43.83639 3054 ft 168 kts 193°
2026-04-25 17:28 56.35651 43.83238 2830 ft 152 kts 193°
2026-04-25 17:28 56.34659 43.82872 2614 ft 141 kts 193°
2026-04-25 17:28 56.33678 43.82508 2408 ft 144 kts 193°
2026-04-25 17:29 56.32694 43.82146 2221 ft 145 kts 194°
2026-04-25 17:29 56.31706 43.81783 2015 ft 144 kts 194°
2026-04-25 17:29 56.30727 43.81423 1812 ft 143 kts 194°
2026-04-25 17:29 56.29754 43.81065 1619 ft 142 kts 195°
2026-04-25 17:30 56.28779 43.80706 1392 ft 142 kts 195°
2026-04-25 17:30 56.27825 43.80356 1123 ft 139 kts 194°
2026-04-25 17:30 56.26896 43.80014 879 ft 133 kts 194°
2026-04-25 17:30 56.25987 43.79682 677 ft 133 kts 193°
2026-04-25 17:31 56.25088 43.79342 470 ft 130 kts 193°
2026-04-25 17:31 56.24194 43.79013 315 ft 132 kts 191°
2026-04-25 17:31 56.23349 43.78704 266 ft 110 kts 192°
2026-04-25 17:31 56.22720 43.78482 266 ft 71 kts 192°
2026-04-25 17:32 56.22426 43.78378 265 ft 8 kts 190°
2026-04-25 17:32 56.22355 43.78354 267 ft 12 kts 191°
2026-04-25 17:32 56.22264 43.78323 267 ft 15 kts 191°
2026-04-25 17:32 56.22151 43.78281 266 ft 18 kts 192°
2026-04-25 17:33 56.22023 43.78237 267 ft 19 kts 191°
2026-04-25 17:33 56.21946 43.78297 266 ft 11 kts 108°
2026-04-25 17:33 56.21931 43.78431 266 ft 6 kts 104°
2026-04-25 17:33 56.21930 43.78433 266 ft 0 kts 104°
2026-04-25 17:34 56.21928 43.78451 266 ft 4 kts 103°
2026-04-25 17:35 56.21920 43.78521 266 ft 8 kts 101°
2026-04-25 17:35 56.21914 43.78634 266 ft 10 kts 77°
2026-04-25 17:35 56.21929 43.78731 266 ft 8 kts 90°
2026-04-25 17:35 56.21920 43.78831 265 ft 4 kts 100°
2026-04-25 17:36 56.21917 43.78862 265 ft 0 kts 100°